TimeMST,TemperatureF,Dew PointF,Humidity,Sea Level PressureIn,VisibilityMPH,Wind Direction,Wind SpeedMPH,Gust SpeedMPH,PrecipitationIn,Events,Conditions,WindDirDegrees,DateUTC
12:54 AM,16.0,14.0,92,29.99,10.0,ESE,3.5,-,N/A,,Overcast,120,2013-02-21 07:54:00
1:54 AM,15.1,12.9,91,29.99,10.0,SE,4.6,-,N/A,,Partly Cloudy,140,2013-02-21 08:54:00
2:54 AM,14.0,10.9,88,29.99,10.0,SSE,4.6,-,N/A,,Clear,150,2013-02-21 09:54:00
4:39 AM,10.4,8.6,92,29.85,10.0,SSW,3.5,-,N/A,,Partly Cloudy,200,2013-02-21 11:39:00
4:54 AM,10.0,8.1,92,30.03,10.0,SSE,5.8,-,N/A,,Clear,160,2013-02-21 11:54:00
5:54 AM,10.9,8.1,88,30.03,10.0,SE,5.8,-,N/A,,Partly Cloudy,140,2013-02-21 12:54:00
6:54 AM,9.0,7.0,92,30.03,10.0,SE,5.8,-,N/A,,Clear,130,2013-02-21 13:54:00
7:54 AM,10.0,8.1,92,30.03,10.0,SE,5.8,-,N/A,,Clear,140,2013-02-21 14:54:00
8:54 AM,12.9,10.9,92,30.04,10.0,SE,4.6,-,N/A,,Clear,130,2013-02-21 15:54:00
9:54 AM,16.0,15.1,96,30.04,10.0,Calm,Calm,-,N/A,,Clear,0,2013-02-21 16:54:00
10:54 AM,21.9,17.1,82,30.02,10.0,Calm,Calm,-,N/A,,Scattered Clouds,0,2013-02-21 17:54:00
11:54 AM,28.0,17.1,63,29.99,10.0,Calm,Calm,-,N/A,,Scattered Clouds,0,2013-02-21 18:54:00
12:54 PM,30.9,14.0,50,29.96,10.0,Calm,Calm,-,N/A,,Clear,0,2013-02-21 19:54:00
1:54 PM,30.9,15.1,52,29.96,10.0,Calm,Calm,-,N/A,,Clear,0,2013-02-21 20:54:00
2:54 PM,30.0,12.9,49,29.96,10.0,NW,3.5,-,N/A,,Clear,310,2013-02-21 21:54:00
3:54 PM,28.9,14.0,54,29.97,10.0,NW,6.9,-,N/A,,Clear,310,2013-02-21 22:54:00
4:54 PM,27.0,12.0,53,29.98,10.0,NW,5.8,-,N/A,,Scattered Clouds,310,2013-02-21 23:54:00
5:54 PM,23.0,15.1,72,29.99,10.0,SW,3.5,-,N/A,,Overcast,230,2013-02-22 00:54:00
6:54 PM,25.0,14.0,63,29.98,10.0,South,8.1,-,N/A,,Overcast,170,2013-02-22 01:54:00
7:54 PM,19.9,10.9,68,29.99,10.0,South,5.8,-,N/A,,Mostly Cloudy,180,2013-02-22 02:54:00
8:54 PM,17.1,7.0,65,29.97,10.0,South,10.4,-,N/A,,Clear,190,2013-02-22 03:54:00
9:54 PM,19.9,10.0,65,29.96,10.0,SSE,4.6,-,N/A,,Overcast,150,2013-02-22 04:54:00
10:54 PM,21.9,12.0,66,29.94,10.0,SW,12.7,-,N/A,,Overcast,220,2013-02-22 05:54:00
11:54 PM,24.1,14.0,65,29.91,10.0,SW,10.4,-,N/A,,Overcast,220,2013-02-22 06:54:00